Regional Weather Roundup
Issued by NWS State College, PA

Home | Current Version | Previous Version | Text Only | Print | Product List | Glossary On
Versions: 1 2 3 4 5 6 7 8 9 10 11 12 13 14 15 16 17 18 19 20 21 22 23 24 25 26 27 28 29 30 31 32 33 34 35 36 37 38 39 40 41 42 43 44 45
000
ASUS41 KCTP 111510
RWRCTP

REGIONAL WEATHER ROUNDUP
NATIONAL WEATHER SERVICE STATE COLLEGE PA
1000 AM EST MON DEC 11 2017

Note: "fair" indicates few or no clouds below 12,000 feet with no
significant weather and/or obstructions to visibility.

* = STATION THAT DOES NOT REPORT PRECIPITATION /E.G. RAIN...SNOW...ETC/
    THUNDER OR FOG.

PAZ002>004-007>009-013>016-020>023-029>032-111600-
WESTERN PENNSYLVANIA

CITY           SKY/WX    TMP DP  RH WIND       PRES   REMARKS
ERIE           CLOUDY    29  23  78 S5        30.03R
MEADVILLE      CLOUDY    27  21  78 SW5       29.99S
FRANKLIN*      FLURRIES  27  22  81 W3        29.99S
NEW CASTLE     CLOUDY    30  20  66 SW8       30.04S
BEAVER COUNTY  CLOUDY    30  19  64 W6        30.02S
BUTLER*        CLOUDY    30  19  63 SW7       30.02S
PITTSBURGH INT CLOUDY    33  18  53 VRB6      30.02S
PITTSBURGH     CLOUDY    31  18  58 W9        30.02S
INDIANA*       CLOUDY    32  19  59 W6G13     30.04F
LATROBE        CLOUDY    32  19  59 W8        30.04F
WASHINGTON CO* CLOUDY    32  20  61 CALM      30.06S
$$

PAZ004>006-010>012-017>019-024>028-033>037-041-042-045-046-049>053-111600-
CENTRAL PENNSYLVANIA

CITY           SKY/WX    TMP DP  RH WIND       PRES   REMARKS
BRADFORD       LGT SNOW  25  22  88 VRB3      29.94S FOG
DUBOIS         CLOUDY    27  21  78 W6        29.97S
CLEARFIELD     CLOUDY    29  22  75 VRB6      29.99S
JOHNSTOWN      CLOUDY    27  18  69 W7        29.95F
ALTOONA        CLOUDY    33  20  58 W8        30.01S
STATE COLLEGE  CLOUDY    32  21  64 W12       30.01S
WILLIAMSPORT   CLOUDY    36  24  62 W9        30.03R
SELINSGROVE    CLOUDY    37  23  56 VRB5      30.05S
FT INDIANTOWN  MOSUNNY   37  21  52 NW12      30.05R
CAPITAL CITY   MOSUNNY   38  22  52 W6        30.06R
HARRISBURG     MOSUNNY   37  23  56 W7        30.06R
YORK           CLOUDY    37  24  59 W6        30.06R
$$

PAZ038>040-043-044-047-048-054-055-060>062-067>071-111600-
EASTERN PENNSYLVANIA

CITY           SKY/WX    TMP DP  RH WIND       PRES   REMARKS
SCRANTON       CLOUDY    32  22  66 VRB5      30.00R
MOUNT POCONO   MOSUNNY   27  20  75 W14       29.94R
ALLENTOWN      SUNNY     35  21  56 W8        30.04R
QUAKERTOWN*    SUNNY     36  19  51 W12       30.04R
READING        SUNNY     37  24  59 W12       30.05R
LANCASTER      CLOUDY    36  25  64 W7        30.06R
COATESVILLE    MOSUNNY   36  23  60 W7        30.06R
POTTSTOWN      SUNNY     35  21  56 VRB3      30.07R
BLUE BELL      SUNNY     37  23  56 W7        30.07R
DOYLESTOWN     SUNNY     37  21  52 W10       30.04R
WILLOW GROVE   NOT AVBL
NORTH PHILA    SUNNY     40  23  50 W10       30.07S
PHILADELPHIA   MOSUNNY   39  23  52 W10       30.08R
$$




USA.gov is the U.S. government's official web portal to all federal, state and local government web resources and services.